Wind_Speed
18 18 18 18 19 18 18 18 17 16 16 16 16 16 16 16 16 16 16 16 16 16 15 14 14 14 13 14 15 16 16 16 15 15 15 16 16 16
18 18 18 19 19 19 19 18 18 17 16 15 15 15 16 16 16 16 16 16 16 16 15 15 15 16 15 15 15 16 16 16 16 16 16 15 15 15
18 18 19 19 19 19 19 19 18 18 17 16 16 16 16 17 17 17 16 16 16 16 16 16 16 16 16 16 15 15 15 16 16 16 16 16 16 15
19 19 19 19 19 19 20 19 19 19 18 18 17 17 17 17 17 17 16 16 16 16 17 17 17 17 17 16 16 15 15 15 15 16 16 16 16 16
19 19 19 19 19 20 20 20 20 20 19 19 18 18 18 18 17 17 17 17 17 17 17 18 18 18 17 16 16 16 16 16 16 16 16 16 16 17
20 21 21 20 20 21 20 21 21 21 20 20 19 19 18 18 18 18 18 18 17 17 18 18 18 18 17 16 16 16 16 16 16 17 17 17 17 17
21 21 21 21 21 21 21 21 21 21 21 20 19 19 19 19 19 19 19 19 19 18 19 19 19 19 18 18 17 17 17 17 17 18 18 18 18 18
23 22 22 21 21 21 21 21 21 21 21 20 20 19 19 19 19 19 19 19 20 20 20 20 21 21 20 19 20 20 19 19 19 19 19 19 19 19
23 23 22 21 21 21 21 22 22 22 21 21 20 20 20 20 20 20 20 20 20 21 21 21 22 22 23 22 21 21 21 21 20 20 20 19 19 18
24 23 22 21 21 22 22 23 23 23 22 22 21 21 21 21 21 21 21 21 22 22 22 22 23 23 23 23 22 22 22 22 21 21 21 20 20 20
25 24 23 23 23 23 23 23 23 24 24 23 22 23 22 22 22 22 22 22 22 23 23 23 23 23 23 23 23 22 23 22 22 21 21 21 21 21
25 24 24 24 24 24 24 24 24 24 24 24 23 24 23 23 23 24 24 23 23 23 23 23 23 24 23 23 23 23 23 22 22 22 22 22 22 21
25 25 25 26 26 25 25 25 25 25 25 25 25 25 25 25 24 25 25 24 24 24 24 24 24 24 24 23 24 23 23 22 23 23 22 22 23 22
27 26 26 27 27 27 27 28 28 27 27 27 26 26 26 26 26 25 25 26 25 25 25 25 25 24 24 24 24 24 24 23 23 23 24 24 24 23
27 27 27 28 28 27 28 29 29 29 28 28 28 28 27 27 27 27 26 27 27 26 26 25 26 25 24 24 23 24 25 24 24 25 25 25 25 25
28 27 28 28 28 28 29 30 30 29 29 30 29 29 29 29 29 29 28 27 27 27 26 26 26 26 25 24 24 25 25 25 25 26 26 26 26 26
28 28 29 30 29 28 29 30 31 31 31 31 30 30 30 30 30 30 30 29 29 29 28 28 27 27 26 26 26 26 26 26 26 26 27 28 28 28
29 29 29 30 31 29 30 30 31 31 31 31 31 31 31 31 31 31 31 30 29 29 30 29 29 29 29 28 28 28 28 28 28 29 29 29 30 30
30 30 30 31 31 30 30 31 31 31 31 31 31 31 31 31 31 31 31 31 30 30 30 31 31 30 30 30 30 30 30 30 30 31 31 31 31 32
31 30 30 31 31 31 31 31 32 32 32 32 32 31 32 32 32 32 32 32 32 32 31 32 32 31 31 31 31 31 31 32 32 32 32 33 33 33
31 31 30 31 31 31 31 31 31 31 32 33 33 33 33 33 33 32 32 33 32 32 33 32 32 32 32 33 33 32 32 33 33 33 33 34 34 35
31 32 31 31 32 31 32 32 31 32 33 33 34 34 34 34 34 34 34 34 34 33 33 33 33 33 33 34 34 34 34 34 34 35 35 36 35 35
32 32 32 32 33 33 33 32 33 34 34 34 34 35 35 35 35 35 36 36 35 35 34 35 35 35 35 35 36 36 36 36 37 37 37 37 37 36
Wind_Direction
276 280 282 282 281 279 278 278 277 278 278 278 277 276 277 277 275 268 264 265 269 274 274 274 276 275 274 272 268 270 271 270 269 268 265 266 265 266
277 279 282 281 277 275 276 277 276 276 276 274 275 277 278 277 275 272 266 267 272 273 272 275 278 282 281 278 273 270 270 268 266 267 263 262 263 266
274 278 281 280 276 274 275 276 275 273 273 273 276 276 275 275 274 271 267 269 273 274 274 276 279 280 280 280 280 276 270 267 267 266 263 262 265 266
274 278 280 280 277 276 276 275 275 274 274 275 276 277 275 273 271 268 269 269 273 273 273 276 277 277 277 277 277 276 273 272 271 269 268 266 266 267
274 277 280 279 278 277 276 276 276 275 275 275 276 276 274 271 268 268 269 269 272 272 273 275 276 277 276 275 274 274 273 271 269 268 268 267 265 266
275 276 280 278 277 276 276 277 277 275 273 273 274 274 272 270 269 269 270 270 272 273 272 273 274 275 275 272 273 274 273 273 271 270 269 268 266 265
275 276 277 277 275 274 274 275 277 276 274 272 273 273 271 270 269 270 270 269 270 272 271 269 271 273 274 273 271 273 273 274 274 272 271 270 267 265
275 276 277 276 275 274 273 273 274 274 274 272 271 272 271 270 270 271 271 270 269 271 270 268 270 272 273 276 273 271 271 271 273 273 272 270 268 265
275 275 276 276 273 272 272 272 273 273 272 272 272 271 269 269 269 271 271 272 271 270 271 270 271 272 273 275 274 271 270 270 271 272 272 269 267 265
274 274 274 274 273 272 272 272 271 271 271 271 271 271 269 268 269 271 271 272 272 271 271 271 271 271 272 272 272 270 270 270 270 271 270 267 265 265
274 273 273 272 272 272 271 271 270 270 270 270 271 270 270 269 270 272 273 274 273 272 273 273 272 272 271 270 270 270 270 270 270 270 268 267 266 267
273 272 270 270 271 270 270 270 270 270 270 270 270 270 270 270 271 271 271 273 273 272 272 272 272 272 270 270 269 268 269 269 270 270 267 265 266 267
271 270 268 269 270 269 270 270 270 269 270 270 270 270 271 272 273 273 272 271 272 272 271 271 271 271 270 270 268 268 267 268 269 267 266 265 265 267
271 270 268 268 269 269 269 269 269 269 269 270 270 271 272 272 273 273 271 269 269 270 270 269 271 271 270 270 268 267 267 267 267 266 264 265 265 266
272 270 268 268 270 271 269 269 269 269 270 270 270 270 271 272 270 271 270 269 270 270 270 269 270 270 270 270 269 269 269 268 267 267 266 264 265 267
273 270 267 267 270 271 269 268 269 270 270 270 270 269 269 270 270 270 270 270 269 270 270 269 270 269 268 269 270 271 271 269 268 266 265 265 265 268
275 271 268 267 270 272 271 269 269 270 270 269 269 268 268 268 270 271 270 270 269 268 269 270 270 269 269 269 270 272 272 270 268 268 266 266 268 270
276 273 269 268 269 272 271 270 270 271 270 269 268 267 267 267 268 269 270 269 269 269 268 269 268 269 269 268 269 270 271 271 270 269 269 269 270 272
278 276 272 269 269 270 271 270 269 269 269 269 268 267 268 268 268 268 268 268 268 269 269 269 269 269 269 268 267 269 270 269 269 270 271 271 272 272
278 277 275 272 270 271 272 270 268 268 269 268 268 269 268 268 268 268 268 268 268 268 269 268 269 269 269 267 267 267 268 269 269 269 269 270 271 271
278 277 276 273 270 270 271 271 269 270 270 269 269 269 268 268 268 268 269 269 268 267 268 268 268 267 268 269 269 268 269 270 271 271 271 271 271 271
279 277 275 273 271 270 271 270 270 271 271 271 271 270 268 268 268 268 268 268 268 268 268 269 268 267 267 269 270 270 270 271 272 274 274 274 274 273
278 277 274 273 271 269 271 270 271 272 271 271 271 270 269 268 268 269 269 268 268 268 268 268 268 267 268 269 270 270 271 271 271 272 274 275 275 275
Height
5794 5794 5793 5792 5792 5791 5790 5790 5790 5789 5789 5788 5787 5786 5786 5786 5786 5786 5786 5786 5786 5786 5786 5785 5785 5785 5784 5784 5784 5784 5784 5785 5785 5785 5786 5786 5786 5787
5789 5788 5787 5787 5786 5785 5785 5785 5784 5784 5784 5783 5783 5782 5781 5781 5781 5781 5781 5782 5782 5781 5781 5781 5781 5781 5780 5779 5779 5779 5779 5779 5780 5780 5781 5781 5782 5782
5783 5783 5782 5781 5780 5780 5779 5779 5778 5778 5778 5778 5777 5777 5776 5776 5776 5776 5776 5777 5777 5776 5776 5776 5776 5776 5775 5775 5774 5774 5774 5774 5774 5775 5775 5776 5777 5778
5777 5777 5776 5775 5774 5774 5773 5773 5773 5772 5772 5772 5772 5771 5771 5771 5771 5771 5771 5772 5772 5771 5771 5771 5771 5771 5770 5770 5769 5769 5769 5769 5769 5770 5770 5771 5772 5772
5771 5771 5770 5769 5768 5768 5767 5767 5767 5766 5766 5766 5766 5765 5765 5765 5765 5765 5765 5766 5766 5766 5766 5766 5766 5765 5765 5765 5765 5764 5764 5764 5764 5765 5765 5766 5766 5767
5765 5764 5764 5762 5762 5761 5761 5760 5760 5760 5759 5759 5759 5759 5759 5759 5759 5760 5760 5760 5760 5760 5760 5760 5760 5760 5760 5760 5760 5760 5760 5760 5760 5760 5760 5760 5761 5762
5758 5757 5757 5756 5755 5755 5754 5754 5753 5753 5753 5752 5753 5753 5753 5753 5753 5754 5754 5754 5754 5754 5754 5754 5755 5755 5754 5754 5755 5755 5755 5755 5755 5755 5755 5755 5756 5756
5751 5750 5750 5749 5748 5748 5747 5747 5747 5747 5746 5746 5746 5746 5747 5747 5747 5747 5747 5748 5748 5749 5748 5748 5748 5749 5749 5749 5749 5749 5749 5749 5749 5749 5749 5749 5750 5751
5743 5743 5742 5742 5741 5741 5741 5740 5740 5740 5740 5740 5740 5740 5740 5741 5741 5741 5741 5741 5741 5741 5741 5742 5742 5742 5742 5742 5742 5742 5742 5743 5743 5743 5743 5743 5744 5745
5735 5735 5735 5734 5734 5734 5734 5734 5734 5733 5733 5733 5733 5734 5734 5734 5734 5734 5734 5734 5734 5734 5734 5735 5735 5735 5735 5735 5735 5735 5736 5736 5736 5736 5737 5737 5738 5739
5728 5727 5727 5727 5727 5726 5726 5726 5726 5726 5726 5726 5726 5726 5726 5727 5727 5727 5727 5727 5727 5727 5727 5728 5728 5728 5728 5728 5728 5728 5728 5729 5729 5729 5730 5731 5732 5732
5720 5719 5719 5719 5718 5718 5718 5718 5719 5719 5718 5719 5719 5719 5719 5720 5720 5720 5720 5720 5720 5720 5720 5720 5721 5721 5721 5721 5721 5721 5721 5722 5722 5722 5723 5724 5725 5726
5711 5711 5711 5710 5710 5710 5710 5711 5711 5711 5711 5711 5711 5711 5711 5712 5712 5712 5712 5713 5713 5713 5713 5713 5713 5713 5713 5714 5714 5714 5714 5715 5715 5716 5716 5717 5718 5719
5702 5702 5702 5701 5701 5701 5702 5702 5702 5703 5703 5703 5703 5703 5704 5704 5704 5704 5704 5704 5705 5705 5705 5705 5706 5706 5706 5707 5707 5707 5707 5708 5708 5709 5710 5710 5711 5712
5693 5693 5693 5693 5692 5692 5693 5693 5693 5694 5694 5694 5695 5695 5695 5695 5695 5696 5696 5696 5696 5696 5697 5697 5698 5698 5699 5699 5700 5700 5700 5701 5701 5702 5702 5703 5704 5705
5683 5683 5683 5683 5683 5683 5683 5684 5684 5685 5685 5686 5686 5686 5686 5686 5687 5687 5687 5687 5688 5688 5688 5689 5689 5690 5691 5691 5692 5692 5692 5693 5693 5694 5694 5695 5696 5696
5674 5674 5674 5673 5674 5674 5674 5674 5675 5675 5675 5676 5676 5677 5677 5677 5678 5678 5678 5679 5679 5680 5680 5680 5681 5682 5682 5683 5684 5684 5684 5685 5685 5685 5686 5686 5687 5687
5665 5664 5664 5664 5664 5664 5664 5664 5665 5665 5666 5666 5666 5667 5667 5668 5668 5669 5669 5669 5670 5671 5671 5672 5672 5673 5674 5675 5675 5676 5676 5676 5676 5676 5677 5677 5678 5679
5655 5655 5655 5654 5654 5654 5654 5654 5655 5655 5656 5656 5656 5657 5657 5658 5658 5659 5659 5660 5661 5661 5662 5662 5663 5664 5665 5666 5667 5667 5667 5667 5667 5667 5668 5668 5668 5669
5645 5645 5645 5644 5644 5644 5644 5644 5644 5645 5646 5646 5647 5647 5647 5648 5648 5649 5649 5650 5651 5651 5652 5652 5653 5654 5655 5656 5657 5658 5657 5657 5657 5657 5658 5658 5658 5658
5635 5635 5635 5634 5634 5634 5634 5634 5634 5635 5636 5636 5637 5637 5637 5638 5638 5639 5639 5640 5640 5641 5641 5642 5643 5643 5644 5645 5646 5647 5647 5646 5646 5646 5647 5647 5647 5648
5625 5625 5625 5624 5624 5624 5624 5624 5624 5625 5625 5625 5626 5626 5627 5627 5627 5628 5628 5629 5629 5630 5631 5632 5632 5632 5633 5634 5635 5636 5637 5636 5635 5635 5635 5635 5635 5636
5615 5614 5614 5614 5613 5614 5613 5614 5614 5614 5614 5614 5615 5615 5615 5616 5616 5617 5617 5617 5618 5619 5619 5620 5621 5621 5622 5622 5623 5624 5624 5624 5624 5624 5624 5623 5623 5623